Regional Weather Roundup
Issued by NWS Northern Indiana

Home | Current Version | Previous Version | Graphics & Text | Print | Product List | Glossary On
Versions: 1 2 3 4 5 6 7 8 9 10 11 12 13 14 15 16 17 18 19 20 21 22 23 24 25 26 27 28 29 30 31 32 33 34 35 36 37 38 39 40 41 42 43 44 45 46 47 48 49 50
000
ASUS43 KIWX 281110
RWRIWX

KIWX WEATHER ROUNDUP
NATIONAL WEATHER SERVICE NORTHERN INDIANA
600 AM EST SAT FEB 28 2015

NOTE: "FAIR" INDICATES FEW OR NO CLOUDS BELOW 12,000 FEET WITH NO
SIGNIFICANT WEATHER AND/OR OBSTRUCTIONS TO VISIBILITY.

* THESE STATIONS ARE NOT UNDER NWS QUALITY CONTROL. THEY ALSO MAY NOT
  REPORT WEATHER SUCH AS PRECIPITATION OR FOG.

INZ001>027-281200-
NORTHERN INDIANA

CITY           SKY/WX    TMP DP  RH WIND       PRES   REMARKS
GARY*          CLEAR     -6 -15  65 CALM      30.70R
VALPARAISO     PTCLDY    -8 -12  83 CALM      30.69R
MICHIGAN CITY* PTCLDY    -8 -17  65 CALM      30.70R
LAPORTE*       PTCLDY    -8 -14  77 CALM      30.69R
KNOX*            N/A     -6 -18  54 CALM      30.69R
SOUTH BEND     PTCLDY    -5 -11  75 CALM      30.69R
GOSHEN         PTCLDY   -10 -17  71 CALM      30.69R
MONTICELLO*    PTCLDY    -1  -4  85 CALM      30.69R
LOGANSPORT*    PTCLDY     0  -4  85 CALM      30.70R
ROCHESTER*     PTCLDY     1  -4  78 CALM      30.70R
WARSAW*        PTCLDY    -6  -9  84 CALM      30.69R
ANGOLA*        CLEAR    -11 -17  77 CALM      30.68R
FORT WAYNE     MOCLDY     0  -5  79 CALM      30.70R
HUNTINGTON*    CLEAR      0  -6  76 CALM      30.69S
PERU/GRISSOM   CLOUDY     2  -3  81 E3        30.68R
MARION*        PTCLDY     1  -4  79 CALM      30.69R

$$
INZ028>050-281200-
CENTRAL INDIANA

CITY           SKY/WX    TMP DP  RH WIND       PRES   REMARKS
LAFAYETTE      MOCLDY     6  -1  73 E6        30.69R WCI  -4
KOKOMO*        PTCLDY     1  -4  78 CALM      30.69R
MUNCIE*        PTCLDY    -3  -7  82 E3        30.68R
INDIANAPOLIS   CLOUDY    10   2  69 NE7       30.66R WCI  -1

$$
MIZ043>046-050>051-056>058-064>065-071>073-077>080-281200-
SOUTHWEST LOWER MICHIGAN

CITY           SKY/WX    TMP DP  RH WIND       PRES   REMARKS
BATTLE CREEK   PTCLDY    -7 -12  79 S5        30.66R WCI -18
BENTON HARBOR  PTCLDY    -5  -8  87 CALM      30.69R
COLDWATER*     PTCLDY   -13 -18  76 SE5       30.67R WCI -25
HILLSDALE*     PTCLDY    -4  -8  79 CALM      30.65R
HOLLAND        CLEAR      1  -4  79 S3        30.67R
GRAND RAPIDS   CLEAR     -1  -6  79 S7        30.65R WCI -14
KALAMAZOO      PTCLDY    -5 -10  79 S5        30.66R WCI -16
STURGIS*       MOCLDY    -6  -8  92 CALM      30.67R
THREE RIVERS*  FAIR      -8 -14  78 CALM      30.69R

$$
OHZ001>008-015>018-024>025-281200-
NORTHWEST OHIO

CITY           SKY/WX    TMP DP  RH WIND       PRES   REMARKS
WAUSEON*       FAIR      -2  -6  84 CALM      30.71R
DEFIANCE       PTCLDY    -5 -11  75 CALM      30.72R
FINDLAY        PTCLDY    -2  -8  76 CALM      30.71R
TOLEDO EXPRESS PTCLDY    -8 -12  83 CALM      30.72R
TOLEDO METCALF FAIR       1  -7  68 SE3       30.73S
LIMA           MOCLDY     3  -6  66 SE3       30.68R

$$
AND FOR LAKE MICHIGAN COASTAL AND OPEN LAKE BUOY OBSERVATIONS

STATION/POSITION TEMP    WIND        PRES    VSBY  WAVE
                 AIR SEA DIR/SP/G                  HT/PER
                 (F)     (DEG/KT/KT) (MB)    (MI)  (FT/S)
CALUMET HARBOR     3     200/  4/  5 1037.9R
MICHIGAN CITY      2     150/  4/  5   N/A
SAINT JOSEPH       1     130/  7/ 10 1038.9F

$$
&&



USA.gov is the U.S. government's official web portal to all federal, state and local government web resources and services.